Regional Weather Roundup
Issued by NWS

Home | Current Version | Previous Version | Graphics & Text | Print | Product List | Glossary On
Versions: 1 2 3 4 5 6 7 8 9 10 11 12 13 14 15 16 17 18 19 20 21 22 23 24 25 26 27 28 29 30 31 32 33 34 35 36 37 38 39 40 41 42 43 44 45 46 47 48 49 50
000
ASUS43 KLSX 181257
RWRMO

WEATHER SUMMARY FOR MISSOURI
NATIONAL WEATHER SERVICE SPRINGFIELD MO
700 AM CST THU JAN 18 2018

NOTE: "FAIR" INDICATES FEW OR NO CLOUDS BELOW 12,000 FEET WITH NO
       SIGNIFICANT WEATHER AND/OR OBSTRUCTIONS TO VISIBILITY.
       CURRENT SKY AND/OR WEATHER CONDITIONS ARE NOT AVAILABLE FOR
       CHILLICOTHE AND FARMINGTON.

MOZ001>031-035>038-043-044-053-054-181400-
...NORTHERN AND WESTERN MISSOURI...

CITY           SKY/WX    TMP DP  RH WIND       PRES   REMARKS
KANSAS CTY INT CLOUDY    17   7  64 S10       30.26S WCI   5
LEE`S SUMMIT   CLOUDY    19   8  62 SW10      30.29S WCI   7
ST JOSEPH      CLOUDY    12   7  80 S7        30.25F WCI   1
CHILLICOTHE      N/A     13   6  74 S7        30.28F WCI   3

$$
MOZ066>068-077>081-088>096-101>105-181400-
...SOUTHWEST MISSOURI...

CITY           SKY/WX    TMP DP  RH WIND       PRES   REMARKS
SPRINGFIELD    CLOUDY    19   6  57 SW13      30.37F WCI   6
JOPLIN         CLOUDY    21   9  59 SW15      30.39F WCI   8

$$
MOZ032>034-039>042-045>050-055>058-069>072-181400-
...CENTRAL MISSOURI...

CITY           SKY/WX    TMP DP  RH WIND       PRES   REMARKS
COLUMBIA       NOT AVBL
JEFFERSON CITY CLOUDY    17   7  64 CALM      30.38F
ROLLA          CLOUDY    15   7  70 SW13      30.36F WCI   1
SEDALIA        CLOUDY    21  10  62 SW16      30.32F WCI   7
WARRENSBURG    CLOUDY    16   9  73 S10       30.31F WCI   3

$$
MOZ051-052-059>065-181400-
...EAST CENTRAL MISSOURI...

CITY           SKY/WX    TMP DP  RH WIND       PRES   REMARKS
ST LOUIS INTL  CLOUDY    20   9  62 SW12      30.36F WCI   8

$$
MOZ072>076-082>087-097>100-106>115-181400-
...SOUTH CENTRAL AND SOUTHEAST MISSOURI...

CITY           SKY/WX    TMP DP  RH WIND       PRES   REMARKS
CAPE GIRARDEAU FAIR       8   5  87 SE7       30.49S WCI  -3
POPLAR BLUFF   FAIR      12   9  87 SW5       30.50S FOG     WCI   4
WEST PLAINS    CLEAR     13   7  77 W7        30.41S WCI   3

$$



USA.gov is the U.S. government's official web portal to all federal, state and local government web resources and services.